[ hide orbit diagram ]
For accurate long-term ephemerides, please instead use our Horizons system.This orbit viewer was implemented using two-body methods, and hence should not be used for determining accurate long-term trajectories (over several years or decades) or planetary encounter circumstances.
Orbital Elements at Epoch 2459200.5 (2020-Dec-17.0) TDB
Reference: JPL 22 (heliocentric ecliptic J2000)
Element | Value | Uncertainty (1-sigma) | Units |
e | .1706351196703428 | 5.2937e-08 | |
a | 2.449600111572589 | 2.1555e-08 | au |
q | 2.031612303389915 | 1.2095e-07 | au |
i | 4.514047696703596 | 6.3259e-06 | deg |
node | 334.250200194765 | 5.4879e-05 | deg |
peri | 314.7750155940167 | 6.1531e-05 | deg |
M | 186.1889656347267 | 3.3393e-05 | deg |
tp | 2459876.607976932254 (2022-Oct-24.10797693) | 0.00013676 | TDB |
period | 1400.364899642076 3.83 | 1.8483e-05 5.06e-08 | d yr |
n | .257075852223955 | 3.3931e-09 | deg/d |
Q | 2.867587919755263 | 2.5233e-08 | au |
|
| | Orbit Determination Parameters
Additional Information
|
[ show covariance matrix ]
Physical Parameter Table
Parameter |
Symbol |
Value |
Units |
Sigma |
Reference |
Notes |
absolute magnitude |
H |
16.4 |
|
n/a |
MPO433523 |
|
|
233286 (2006 AS93) Discovered 2006-Jan-07 by Mt. Lemmon Survey at Mount Lemmon |
Reference: 20100228/Numbers.arc | Last Updated: 2010-03-03 |
|
[ hide close-approach data ]
Close-Approach Data ...sorted by Date/Time (TDB)
|
Date/Time (TDB) |
Time Uncertainty (days_HH:MM) |
Body |
Nominal Distance (au) |
Minimum Distance (au) |
Maximum Distance (au) |
V-relative (km/s) |
V-infinity (km/s) |
JD (TDB) |
Time Uncertainty (minutes) |
Semi-major axis (km) |
Semi-minor axis (km) |
range-LOV angle (deg) |
N-sigma |
BP |
Orbit Ref. |
Reference |
Modified |
1917-Nov-02 13:09 |
00:05 |
Europ |
0.0485573584037454 |
0.0485388567176319 |
0.0485758746590364 |
4.78813497527744 |
4.78813492956333 |
2421535.047951363 |
4.73194687320383 |
1619.32994567689 |
81.5515087576062 |
55.377725346986 |
73308.8059850911 |
T |
22 |
CATAB v2.0f-lin.ifort 2021-Apr-14 01:02:59 |
2021-Apr-14 01:02 |
1934-Nov-29 05:29 |
00:02 |
Hebe |
0.0238942741461327 |
0.0238563637193185 |
0.0239321851707803 |
8.82019047986715 |
8.82019045036962 |
2427770.728170963 |
2.391816098339 |
1899.57873993468 |
67.8548238215474 |
-5.69843245964146 |
5553.68879997622 |
T |
22 |
CATAB v2.0f-lin.ifort 2021-Apr-14 01:02:59 |
2021-Apr-14 01:02 |
|
|